Location: *
(13.2257°S, 48.7193°W)
Time: 09:38:56
(UTC+00:00)

H-2A R/B - Pass Details

Date: 13 February 2026
Orbit: 518 x 533 km, 98.2° (Epoch: 11 March)

Event Time Altitude Azimuth Distance (km) Brightness Sun altitude
Exits shadow 07:34:26 67° 159° (SSE) 567 3.4 -23.7°
Drops below altitude 10° 07:37:49 10° 188° (S) 1,759 6.0 -22.9°
Sets 07:39:55 0° 189° (S) 2,652 7.0 -22.4°
